Location: ?astrovice
(49.6513°N, 14.9287°E)
Time: 11:04:25
(UTC+00:00)

Cosmos 1980 Rocket - Pass Details

Date: 09 April 2020
Orbit: 829 x 850 km, 71.0° (Epoch: 25 May)

Event Time Altitude Azimuth Distance (km) Brightness Sun altitude
Rises 21:36:46 0° 327° (NNW) 3,390 6.5 -29.4°
Reaches altitude 10° 21:39:16 10° 323° (NW) 2,455 5.5 -29.6°
Enters shadow 21:44:07 48° 269° (W) 1,091 2.8 -29.9°
